Location: Six Mile Lake
(44.9000°N, 79.7170°W)
Time: 19:16:22
(UTC-04:00)

EO-79 - Pass Details

Date: 01 July 2022
Orbit: 588 x 603 km, 98.0° (Epoch: 16 August)

Event Time Altitude Azimuth Distance (km) Brightness Sun altitude
Rises 01:48:40 0° 33° (NNE) 2,855 ? -21.7°
Reaches altitude 10° 01:51:55 10° 60° (ENE) 1,949 ? -21.7°
Maximum altitude 01:54:02 14° 90° (E) 1,725 ? -21.6°
Enters shadow 01:55:19 12° 110° (ESE) 1,808 ? -21.6°
